FW4185 Weather Reports


Display with metric or nautical units.
time (UTC)temp
F
wind
direction
speed
MPH
gust
MPH
rain 1hr
in
rain 24hr
in
rain mn
in
humidity
%
barometer
mb
20260504183411 60 356 3.0 2.0 0.00 0.00 0.00 49 1004.2
20260504182618 58 357 4.0 8.0 0.00 0.00 0.00 50 1004.4
20260504181938 58 356 4.0 8.0 0.00 0.00 0.00 51 1004.4
20260504181258 60 357 0.0 8.0 0.00 0.00 0.00 48 1004.4
20260504180619 0 355 7.0 4.0 0.00 0.00 0.00
20260504175642 0 351 0.0 0.0 0.00 0.00 0.00
20260504174850 58 357 0.0 0.0 0.00 0.00 0.00 55 1004.8
20260504174210 57 354 0.0 7.0 0.00 0.00 0.00 57 1004.9
20260504173530 57 356 0.0 8.0 0.00 0.00 0.00 56 1005.0
20260504172849 57 355 5.0 9.0 0.00 0.00 0.00 55 1004.9
20260504172210 58 356 6.0 9.0 0.00 0.00 0.00 52 1004.9
20260504171530 58 357 4.0 8.0 0.00 0.00 0.00 54 1004.9
20260504170850 58 355 5.0 8.0 0.00 0.00 0.00 54 1005.1
20260504170211 57 357 4.0 8.0 0.00 0.00 0.00 58 1005.1
20260504160140 57 355 7.0 12.0 0.00 0.00 0.00 52 1005.7
20260504151134 0 356 9.0 10.0 0.00 0.00 0.00
20260504150340 60 354 7.0 16.0 0.00 0.00 0.00 46 1006.1
20260504141114 0 355 9.0 8.0 0.00 0.00 0.00
20260504140325 60 356 9.0 16.0 0.00 0.00 0.00 43 1005.9
20260504130802 59 353 11.0 18.0 0.00 0.00 0.00 38 1006.1
20260504130127 60 357 10.0 18.0 0.00 0.00 0.00 38 1006.2
20260504100317 51 355 5.0 10.0 0.00 0.00 0.00 47 1005.9
20260504081422 0 358 10.0 10.0 0.00 0.00 0.00
20260504080630 52 355 12.0 6.0 0.00 0.00 0.00 42 1006.7
20260504070303 0 355 10.0 9.0 0.00 0.00 0.00
20260504050553 0 353 8.0 6.0 0.00 0.00 0.00
20260504045804 52 356 8.0 21.0 0.00 0.00 0.00 50 1008.8
20260504045124 54 357 11.0 21.0 0.00 0.00 0.00 39 1008.7
20260504044443 55 355 12.0 20.0 0.00 0.00 0.00 37 1008.6
20260504043804 0 356 9.0 19.0 0.00 0.00 0.00
20260504043011 54 354 11.0 19.0 0.00 0.00 0.00 37 1008.4
20260504042331 54 357 10.0 17.0 0.00 0.00 0.00 38 1008.3
20260504041652 54 358 10.0 16.0 0.00 0.00 0.00 38 1008.3
20260504041014 0 355 9.0 10.0 0.00 0.00 0.00
20260504035726 54 355 10.0 17.0 0.00 0.00 0.00 37 1008.4
20260504035045 54 356 10.0 16.0 0.00 0.00 0.00 37 1008.4
20260504034405 55 356 10.0 16.0 0.00 0.00 0.00 37 1008.4
20260504033726 0 356 8.0 6.0 0.00 0.00 0.00
20260504032933 54 357 8.0 21.0 0.00 0.00 0.00 46 1008.6
20260504032253 54 356 13.0 23.0 0.00 0.00 0.00 44 1008.5
20260504031613 54 357 15.0 27.0 0.00 0.00 0.00 42 1008.6
20260504030932 54 354 15.0 27.0 0.00 0.00 0.00 42 1008.6
20260504030253 0 356 11.0 8.0 0.00 0.00 0.00
20260504025501 54 355 12.0 23.0 0.00 0.00 0.00 42 1008.7
20260504024821 54 356 14.0 22.0 0.00 0.00 0.00 44 1008.7
20260504024141 54 356 14.0 22.0 0.00 0.00 0.00 44 1008.8
20260504023502 54 354 14.0 23.0 0.00 0.00 0.00 45 1008.8
20260504022823 0 354 11.0 13.0 0.00 0.00 0.00
20260504022030 54 356 11.0 24.0 0.00 0.00 0.00 47 1008.8
20260504021350 54 356 12.0 25.0 0.00 0.00 0.00 47 1008.9
20260504020710 54 356 12.0 25.0 0.00 0.00 0.00 48 1008.8
20260504020030 54 356 13.0 25.0 0.00 0.00 0.00 48 1008.8
20260504015351 54 355 14.0 23.0 0.00 0.00 0.00 46 1008.8
20260504014712 0 354 15.0 13.0 0.00 0.00 0.00
20260504013922 54 357 13.0 22.0 0.00 0.00 0.00 47 1008.7
20260504013242 53 354 12.0 22.0 0.00 0.00 0.00 49 1008.8
20260504012603 0 355 12.0 15.0 0.00 0.00 0.00
20260504011815 0 354 14.0 13.0 0.00 0.00 0.00
20260504011025 53 355 11.0 22.0 0.00 0.00 0.00 48 1008.7
20260504010345 54 353 15.0 22.0 0.00 0.00 0.00 44 1008.7
20260504005705 53 355 13.0 22.0 0.00 0.00 0.00 46 1008.7
20260504005026 0 355 14.0 14.0 0.00 0.00 0.00
20260504004239 52 355 12.0 22.0 0.00 0.00 0.00 49 1008.6
20260504003557 52 356 11.0 21.0 0.00 0.00 0.00 50 1008.6
20260504002917 52 355 10.0 22.0 0.00 0.00 0.00 52 1008.6
20260504002236 51 355 10.0 17.0 0.00 0.00 0.00 53 1008.7
20260504001557 51 357 9.0 20.0 0.00 0.00 0.00 54 1008.7
20260504000917 51 357 10.0 19.0 0.00 0.00 0.00 53 1008.7
20260504000237 0 358 10.0 14.0 0.00 0.00 0.00
20260503235447 0 355 9.0 8.0 0.00 0.00 0.00
20260503234656 51 356 9.0 15.0 0.00 0.00 0.00 56 1008.7
20260503234016 51 355 9.0 14.0 0.00 0.00 0.00 57 1008.8
20260503233337 0 356 6.0 5.0 0.00 0.00 0.00
20260503232547 0 357 8.0 7.0 0.00 0.00 0.00
20260503231646 49 357 7.0 11.0 0.00 0.00 0.00 64 1008.8
20260503231007 0 356 8.0 3.0 0.00 0.00 0.00
20260503230219 0 356 8.0 7.0 0.00 0.00 0.00
20260503225210 49 357 7.0 10.0 0.00 0.00 0.00 63 1009.1
20260503224203 50 357 9.0 15.0 0.00 0.00 0.00 61 1009.1
20260503223522 0 357 10.0 8.0 0.00 0.00 0.00
20260503222733 0 358 9.0 8.0 0.00 0.00 0.00
20260503221835 0 357 9.0 11.0 0.00 0.00 0.00
20260503221042 50 357 9.0 19.0 0.00 0.00 0.00 61 1009.4
20260503220403 0 356 10.0 10.0 0.00 0.00 0.00
20260503215612 50 356 11.0 21.0 0.00 0.00 0.00 59 1009.3
20260503214933 50 357 12.0 20.0 0.00 0.00 0.00 60 1009.2
20260503214252 50 357 9.0 20.0 0.00 0.00 0.00 61 1009.1
20260503213614 0 355 10.0 7.0 0.00 0.00 0.00
20260503212825 0 356 13.0 18.0 0.00 0.00 0.00
20260503212034 50 356 12.0 24.0 0.00 0.00 0.00 57 1008.9
20260503211354 50 356 13.0 22.0 0.00 0.00 0.00 57 1008.8
20260503210715 50 355 14.0 22.0 0.00 0.00 0.00 56 1008.9
20260503210035 0 356 13.0 17.0 0.00 0.00 0.00
20260503205130 51 354 12.0 26.0 0.00 0.00 0.00 54 1009.0
20260503204450 50 355 16.0 15.0 0.00 0.00 0.00 55 1009.0
20260503203658 50 356 15.0 24.0 0.00 0.00 0.00 55 1009.0
20260503203019 50 354 14.0 24.0 0.00 0.00 0.00 54 1009.1
20260503202340 0 357 13.0 15.0 0.00 0.00 0.00
20260503201438 50 356 11.0 22.0 0.00 0.00 0.00 56 1009.4
20260503200758 51 356 12.0 23.0 0.00 0.00 0.00 53 1009.4
20260503200122 51 355 12.0 23.0 0.00 0.00 0.00 53 1009.5
20260503195440 0 358 12.0 15.0 0.00 0.00 0.00
20260503194527 51 356 11.0 18.0 0.00 0.00 0.00 52 1009.9
20260503193847 52 357 11.0 20.0 0.00 0.00 0.00 51 1010.0
20260503193207 51 355 11.0 20.0 0.00 0.00 0.00 52 1010.2
20260503192527 51 356 10.0 18.0 0.00 0.00 0.00 53 1010.3
20260503191847 0 356 15.0 15.0 0.00 0.00 0.00
20260503191055 50 357 10.0 20.0 0.00 0.00 0.00 54 1010.5
20260503190415 50 356 10.0 22.0 0.00 0.00 0.00 52 1010.5
20260503185734 50 356 12.0 22.0 0.00 0.00 0.00 53 1010.6
20260503185055 50 356 11.0 20.0 0.00 0.00 0.00 53 1010.6
20260503184414 51 356 11.0 20.0 0.00 0.00 0.00 51 1010.7